{"data":{"norad_id":61004,"epoch":"2026-05-25T04:32:20.688576Z","epoch_age_seconds":69139,"freshness":"FRESH","line1":"1 61004U 24158Q   26145.18912834  .00000364  00000+0  24407-4 0  9998","line2":"2 61004  53.1614  70.2001 0001336  94.3606 265.7547 15.30194466 97364","mean_motion":15.30194466,"eccentricity":0.0001336,"inclination_deg":53.1614,"raan_deg":70.2001,"arg_perigee_deg":94.3606,"mean_anomaly_deg":265.7547,"bstar":2.4407e-5,"rev_number":9736,"period_min":94.105686041607,"perigee_km":474.31598295159,"apogee_km":476.14720303964,"semimajor_km":6853.3685929956,"source":"CELESTRAK","updated_at":"2026-05-25T13:38:19.349753Z"}}